| time (UTC) | temp F | wind direction | speed MPH | gust MPH | rain 1hr in | rain 24hr in | rain mn in | humidity % | barometer mb |
| 20260502220918 | 52 | 45 | 2.0 | 5.0 | 0.00 | 0.00 | 0.00 | 34 | 1015.5 |
| 20260502220348 | 52 | 68 | 2.0 | 6.0 | 0.00 | 0.00 | 0.00 | 33 | 1015.5 |
| 20260502215318 | 52 | 22 | 1.0 | 4.0 | 0.00 | 0.00 | 0.00 | 32 | 1015.7 |
| 20260502214747 | 52 | 270 | 1.0 | 6.0 | 0.00 | 0.00 | 0.00 | 35 | 1015.6 |
| 20260502214247 | 53 | 45 | 1.0 | 7.0 | 0.00 | 0.00 | 0.00 | 33 | 1015.6 |
| 20260502213717 | 52 | 292 | 2.0 | 6.0 | 0.00 | 0.00 | 0.00 | 34 | 1015.7 |
| 20260502213147 | 52 | 270 | 2.0 | 4.0 | 0.00 | 0.00 | 0.00 | 32 | 1015.7 |
| 20260502212617 | 52 | 0 | 2.0 | 6.0 | 0.00 | 0.00 | 0.00 | 35 | 1015.8 |
| 20260502212117 | 52 | 292 | 2.0 | 5.0 | 0.00 | 0.00 | 0.00 | 33 | 1015.8 |
| 20260502211547 | 52 | 0 | 1.0 | 4.0 | 0.00 | 0.00 | 0.00 | 34 | 1015.8 |
| 20260502211047 | 52 | 292 | 1.0 | 5.0 | 0.00 | 0.00 | 0.00 | 32 | 1015.8 |
| 20260502210547 | 52 | 68 | 1.0 | 4.0 | 0.00 | 0.00 | 0.00 | 33 | 1015.8 |
| 20260502210019 | 52 | 68 | 2.0 | 5.0 | 0.00 | 0.00 | 0.00 | 32 | 1016.1 |
| 20260502205516 | 51 | 270 | 3.0 | 6.0 | 0.00 | 0.00 | 0.00 | 32 | 1016.1 |
| 20260502205018 | 51 | 270 | 3.0 | 8.0 | 0.00 | 0.00 | 0.00 | 34 | 1016.1 |
| 20260502204446 | 51 | 248 | 2.0 | 8.0 | 0.00 | 0.00 | 0.00 | 35 | 1016.3 |
| 20260502203916 | 51 | 292 | 3.0 | 8.0 | 0.00 | 0.00 | 0.00 | 30 | 1016.2 |
| 20260502203416 | 51 | 225 | 2.0 | 8.0 | 0.00 | 0.00 | 0.00 | 33 | 1016.3 |
| 20260502202916 | 51 | 248 | 3.0 | 11.0 | 0.00 | 0.00 | 0.00 | 33 | 1016.3 |
| 20260502202346 | 51 | 248 | 3.0 | 7.0 | 0.00 | 0.00 | 0.00 | 31 | 1016.5 |
| 20260502201845 | 51 | 248 | 3.0 | 11.0 | 0.00 | 0.00 | 0.00 | 31 | 1016.5 |
| 20260502201315 | 51 | 225 | 3.0 | 7.0 | 0.00 | 0.00 | 0.00 | 32 | 1016.5 |
| 20260502200815 | 50 | 225 | 4.0 | 12.0 | 0.00 | 0.00 | 0.00 | 31 | 1016.5 |
| 20260502200315 | 50 | 225 | 6.0 | 10.0 | 0.00 | 0.00 | 0.00 | 30 | 1016.6 |
| 20260502195745 | 51 | 248 | 4.0 | 8.0 | 0.00 | 0.00 | 0.00 | 29 | 1016.6 |
| 20260502195245 | 51 | 270 | 3.0 | 6.0 | 0.00 | 0.00 | 0.00 | 31 | 1016.8 |
| 20260502194745 | 51 | 248 | 3.0 | 7.0 | 0.00 | 0.00 | 0.00 | 32 | 1016.8 |
| 20260502194215 | 51 | 225 | 4.0 | 11.0 | 0.00 | 0.00 | 0.00 | 30 | 1017.0 |
| 20260502193715 | 51 | 292 | 3.0 | 8.0 | 0.00 | 0.00 | 0.00 | 31 | 1017.0 |
| 20260502193145 | 51 | 225 | 3.0 | 7.0 | 0.00 | 0.00 | 0.00 | 35 | 1017.0 |
| 20260502192645 | 50 | 315 | 3.0 | 6.0 | 0.00 | 0.00 | 0.00 | 33 | 1017.0 |
| 20260502192144 | 50 | 225 | 4.0 | 8.0 | 0.00 | 0.00 | 0.00 | 33 | 1016.9 |
| 20260502191614 | 50 | 248 | 3.0 | 11.0 | 0.00 | 0.00 | 0.00 | 31 | 1016.9 |
| 20260502191115 | 50 | 315 | 2.0 | 8.0 | 0.00 | 0.00 | 0.00 | 31 | 1017.0 |
| 20260502190614 | 50 | 225 | 5.0 | 10.0 | 0.00 | 0.00 | 0.00 | 30 | 1017.0 |
| 20260502190044 | 50 | 248 | 3.0 | 12.0 | 0.00 | 0.00 | 0.00 | 32 | 1017.0 |
| 20260502185514 | 50 | 225 | 5.0 | 11.0 | 0.00 | 0.00 | 0.00 | 29 | 1017.2 |
| 20260502185015 | 50 | 248 | 3.0 | 7.0 | 0.00 | 0.00 | 0.00 | 33 | 1017.2 |
| 20260502184444 | 50 | 225 | 4.0 | 9.0 | 0.00 | 0.00 | 0.00 | 30 | 1017.2 |
| 20260502183913 | 50 | 225 | 3.0 | 9.0 | 0.00 | 0.00 | 0.00 | 30 | 1017.3 |
| 20260502183413 | 50 | 248 | 3.0 | 7.0 | 0.00 | 0.00 | 0.00 | 30 | 1017.3 |
| 20260502182913 | 50 | 292 | 2.0 | 5.0 | 0.00 | 0.00 | 0.00 | 34 | 1017.3 |
| 20260502182343 | 50 | 270 | 2.0 | 4.0 | 0.00 | 0.00 | 0.00 | 32 | 1017.3 |
| 20260502181843 | 50 | 270 | 2.0 | 8.0 | 0.00 | 0.00 | 0.00 | 33 | 1017.3 |
| 20260502181343 | 50 | 315 | 2.0 | 7.0 | 0.00 | 0.00 | 0.00 | 31 | 1017.3 |
| 20260502180813 | 49 | 158 | 2.0 | 6.0 | 0.00 | 0.00 | 0.00 | 31 | 1017.3 |
| 20260502180313 | 50 | 225 | 2.0 | 5.0 | 0.00 | 0.00 | 0.00 | 33 | 1017.4 |
| 20260502163911 | 48 | 45 | 1.0 | 4.0 | 0.00 | 0.00 | 0.00 | 38 | 1018.2 |
| 20260502163341 | 48 | 45 | 2.0 | 7.0 | 0.00 | 0.00 | 0.00 | 39 | 1018.2 |
| 20260502162811 | 47 | 270 | 1.0 | 6.0 | 0.00 | 0.00 | 0.00 | 40 | 1018.3 |
| 20260502162311 | 47 | 292 | 2.0 | 6.0 | 0.00 | 0.00 | 0.00 | 40 | 1018.2 |
| 20260502161811 | 47 | 270 | 2.0 | 6.0 | 0.00 | 0.00 | 0.00 | 40 | 1018.3 |
| 20260502161241 | 48 | 68 | 2.0 | 4.0 | 0.00 | 0.00 | 0.00 | 39 | 1018.5 |
| 20260502160741 | 48 | 292 | 2.0 | 4.0 | 0.00 | 0.00 | 0.00 | 40 | 1018.5 |
| 20260502160210 | 47 | 68 | 1.0 | 4.0 | 0.00 | 0.00 | 0.00 | 38 | 1018.5 |
| 20260502151940 | 45 | 270 | 3.0 | 7.0 | 0.00 | 0.00 | 0.00 | 43 | 1018.7 |
| 20260502151440 | 46 | 270 | 3.0 | 6.0 | 0.00 | 0.00 | 0.00 | 42 | 1018.7 |
| 20260502150940 | 46 | 68 | 2.0 | 5.0 | 0.00 | 0.00 | 0.00 | 43 | 1018.6 |
| 20260502150410 | 45 | 270 | 2.0 | 6.0 | 0.00 | 0.00 | 0.00 | 43 | 1018.7 |
| 20260502130407 | 39 | 292 | 1.0 | 4.0 | 0.00 | 0.00 | 0.00 | 55 | 1019.4 |
| 20260502123807 | 37 | 0 | 0.0 | 2.0 | 0.00 | 0.00 | 0.00 | 68 | 1019.3 |
| 20260502123307 | 36 | 248 | 1.0 | 3.0 | 0.00 | 0.00 | 0.00 | 71 | 1019.3 |
| 20260502122736 | 36 | 248 | 1.0 | 2.0 | 0.00 | 0.00 | 0.00 | 73 | 1019.4 |
| 20260502122236 | 35 | 248 | 1.0 | 2.0 | 0.00 | 0.00 | 0.00 | 74 | 1019.4 |
| 20260502121707 | 35 | 248 | 1.0 | 3.0 | 0.00 | 0.00 | 0.00 | 75 | 1019.3 |
| 20260502121206 | 34 | 248 | 2.0 | 4.0 | 0.00 | 0.00 | 0.00 | 76 | 1019.4 |
| 20260502120636 | 34 | 248 | 1.0 | 2.0 | 0.00 | 0.00 | 0.00 | 77 | 1019.5 |
| 20260502120107 | 34 | 248 | 1.0 | 2.0 | 0.00 | 0.00 | 0.00 | 78 | 1019.5 |
| 20260502115536 | 33 | 248 | 1.0 | 2.0 | 0.00 | 0.00 | 0.00 | 78 | 1019.5 |
| 20260502115036 | 33 | 248 | 1.0 | 2.0 | 0.00 | 0.00 | 0.00 | 79 | 1019.5 |
| 20260502114536 | 33 | 0 | 0.0 | 1.0 | 0.00 | 0.00 | 0.00 | 80 | 1019.6 |
| 20260502114036 | 32 | 0 | 0.0 | 1.0 | 0.00 | 0.00 | 0.00 | 83 | 1019.4 |
| 20260502113505 | 31 | 0 | 0.0 | 1.0 | 0.00 | 0.00 | 0.00 | 84 | 1019.3 |
| 20260502113005 | 30 | 0 | 0.0 | 1.0 | 0.00 | 0.00 | 0.00 | 84 | 1019.3 |
| 20260502112435 | 30 | 0 | 0.0 | 1.0 | 0.00 | 0.00 | 0.00 | 84 | 1019.4 |
| 20260502111905 | 30 | 0 | 0.0 | 2.0 | 0.00 | 0.00 | 0.00 | 84 | 1019.3 |
| 20260502111405 | 29 | 248 | 1.0 | 2.0 | 0.00 | 0.00 | 0.00 | 85 | 1019.3 |
| 20260502110905 | 28 | 0 | 0.0 | 1.0 | 0.00 | 0.00 | 0.00 | 85 | 1019.3 |
| 20260502110405 | 28 | 0 | 0.0 | 1.0 | 0.00 | 0.00 | 0.00 | 85 | 1019.3 |
| 20260502105835 | 28 | 0 | 0.0 | 0.0 | 0.00 | 0.00 | 0.00 | 85 | 1019.4 |
| 20260502104804 | 28 | 0 | 0.0 | 0.0 | 0.00 | 0.00 | 0.00 | 84 | 1019.3 |
| 20260502104234 | 28 | 0 | 0.0 | 0.0 | 0.00 | 0.00 | 0.00 | 84 | 1019.3 |
| 20260502103734 | 29 | 0 | 0.0 | 0.0 | 0.00 | 0.00 | 0.00 | 84 | 1019.4 |
| 20260502103204 | 29 | 0 | 0.0 | 1.0 | 0.00 | 0.00 | 0.00 | 84 | 1019.3 |
| 20260502102704 | 29 | 0 | 0.0 | 2.0 | 0.00 | 0.00 | 0.00 | 85 | 1019.3 |
| 20260502102204 | 29 | 248 | 1.0 | 2.0 | 0.00 | 0.00 | 0.00 | 85 | 1019.1 |
| 20260502101634 | 29 | 0 | 0.0 | 1.0 | 0.00 | 0.00 | 0.00 | 86 | 1019.1 |
| 20260502101134 | 28 | 0 | 0.0 | 1.0 | 0.00 | 0.00 | 0.00 | 86 | 1019.1 |
| 20260502100604 | 28 | 0 | 0.0 | 1.0 | 0.00 | 0.00 | 0.00 | 87 | 1019.2 |
| 20260502100104 | 28 | 0 | 0.0 | 1.0 | 0.00 | 0.00 | 0.00 | 88 | 1019.2 |
| 20260502091402 | 28 | 0 | 0.0 | 0.0 | 0.00 | 0.00 | 0.00 | 87 | 1018.8 |
| 20260502090902 | 28 | 0 | 0.0 | 0.0 | 0.00 | 0.00 | 0.00 | 87 | 1018.8 |
| 20260502090402 | 29 | 0 | 0.0 | 0.0 | 0.00 | 0.00 | 0.00 | 86 | 1018.7 |
| 20260502071430 | 30 | 0 | 0.0 | 0.0 | 0.00 | 0.00 | 0.00 | 87 | 1018.7 |
| 20260502070900 | 30 | 0 | 0.0 | 0.0 | 0.00 | 0.00 | 0.00 | 88 | 1018.6 |
| 20260502070400 | 30 | 0 | 0.0 | 0.0 | 0.00 | 0.00 | 0.00 | 88 | 1018.6 |
| 20260502065902 | 30 | 0 | 0.0 | 1.0 | 0.00 | 0.00 | 0.00 | 88 | 1018.6 |
| 20260502065330 | 30 | 0 | 0.0 | 0.0 | 0.00 | 0.00 | 0.00 | 88 | 1018.6 |
| 20260502064830 | 30 | 0 | 0.0 | 0.0 | 0.00 | 0.00 | 0.00 | 88 | 1018.6 |
| 20260502064330 | 30 | 0 | 0.0 | 0.0 | 0.00 | 0.00 | 0.00 | 88 | 1018.6 |
| 20260502063759 | 30 | 0 | 0.0 | 0.0 | 0.00 | 0.00 | 0.00 | 89 | 1018.7 |
| 20260502063300 | 30 | 0 | 0.0 | 0.0 | 0.00 | 0.00 | 0.00 | 89 | 1018.7 |
| 20260502062729 | 30 | 0 | 0.0 | 0.0 | 0.00 | 0.00 | 0.00 | 89 | 1018.7 |
| 20260502062229 | 30 | 0 | 0.0 | 0.0 | 0.00 | 0.00 | 0.00 | 89 | 1018.7 |
| 20260502061659 | 30 | 0 | 0.0 | 0.0 | 0.00 | 0.00 | 0.00 | 89 | 1018.7 |
| 20260502061159 | 30 | 0 | 0.0 | 0.0 | 0.00 | 0.00 | 0.00 | 88 | 1018.7 |
| 20260502060629 | 30 | 0 | 0.0 | 0.0 | 0.00 | 0.00 | 0.00 | 89 | 1018.6 |
| 20260502060059 | 30 | 0 | 0.0 | 0.0 | 0.00 | 0.00 | 0.00 | 88 | 1018.7 |
| 20260502055559 | 30 | 0 | 0.0 | 0.0 | 0.00 | 0.00 | 0.00 | 88 | 1018.7 |
| 20260502055029 | 30 | 0 | 0.0 | 0.0 | 0.00 | 0.00 | 0.00 | 87 | 1018.8 |
| 20260502054501 | 30 | 0 | 0.0 | 0.0 | 0.00 | 0.00 | 0.00 | 87 | 1018.7 |
| 20260502053958 | 30 | 0 | 0.0 | 0.0 | 0.00 | 0.00 | 0.00 | 86 | 1018.7 |
| 20260502053458 | 30 | 0 | 0.0 | 0.0 | 0.00 | 0.00 | 0.00 | 86 | 1018.7 |
| 20260502052928 | 31 | 0 | 0.0 | 0.0 | 0.00 | 0.00 | 0.00 | 86 | 1018.7 |
| 20260502052358 | 31 | 0 | 0.0 | 0.0 | 0.00 | 0.00 | 0.00 | 85 | 1018.7 |
| 20260502051858 | 31 | 0 | 0.0 | 0.0 | 0.00 | 0.00 | 0.00 | 85 | 1018.7 |
| 20260502051328 | 31 | 0 | 0.0 | 0.0 | 0.00 | 0.00 | 0.00 | 85 | 1018.7 |
| 20260502050758 | 32 | 0 | 0.0 | 0.0 | 0.00 | 0.00 | 0.00 | 85 | 1018.7 |
| 20260502050259 | 32 | 0 | 0.0 | 0.0 | 0.00 | 0.00 | 0.00 | 84 | 1018.7 |
| 20260502045757 | 32 | 0 | 0.0 | 0.0 | 0.00 | 0.00 | 0.00 | 84 | 1018.7 |
| 20260502045227 | 32 | 0 | 0.0 | 0.0 | 0.00 | 0.00 | 0.00 | 83 | 1018.6 |
| 20260502044727 | 32 | 0 | 0.0 | 0.0 | 0.00 | 0.00 | 0.00 | 82 | 1018.6 |
| 20260502044227 | 33 | 0 | 0.0 | 0.0 | 0.00 | 0.00 | 0.00 | 82 | 1018.6 |
| 20260502043657 | 33 | 0 | 0.0 | 0.0 | 0.00 | 0.00 | 0.00 | 81 | 1018.7 |
| 20260502043158 | 33 | 0 | 0.0 | 0.0 | 0.00 | 0.00 | 0.00 | 81 | 1018.7 |
| 20260502042657 | 34 | 0 | 0.0 | 0.0 | 0.00 | 0.00 | 0.00 | 80 | 1018.7 |
| 20260502042127 | 34 | 0 | 0.0 | 0.0 | 0.00 | 0.00 | 0.00 | 79 | 1018.7 |
| 20260502041556 | 35 | 0 | 0.0 | 1.0 | 0.00 | 0.00 | 0.00 | 79 | 1018.5 |
| 20260502041057 | 35 | 0 | 0.0 | 1.0 | 0.00 | 0.00 | 0.00 | 79 | 1018.5 |
| 20260502040526 | 35 | 0 | 0.0 | 2.0 | 0.00 | 0.00 | 0.00 | 79 | 1018.6 |
| 20260502035956 | 35 | 0 | 0.0 | 1.0 | 0.00 | 0.00 | 0.00 | 78 | 1018.5 |
| 20260502035456 | 35 | 0 | 0.0 | 2.0 | 0.00 | 0.00 | 0.00 | 78 | 1018.6 |
| 20260502034956 | 35 | 0 | 0.0 | 1.0 | 0.00 | 0.00 | 0.00 | 78 | 1018.7 |
| 20260502034426 | 35 | 0 | 0.0 | 1.0 | 0.00 | 0.00 | 0.00 | 78 | 1018.8 |
| 20260502033856 | 36 | 0 | 0.0 | 0.0 | 0.00 | 0.00 | 0.00 | 76 | 1018.7 |
| 20260502033355 | 36 | 0 | 0.0 | 2.0 | 0.00 | 0.00 | 0.00 | 76 | 1018.7 |
| 20260502032856 | 36 | 0 | 0.0 | 2.0 | 0.00 | 0.00 | 0.00 | 76 | 1018.8 |
| 20260502032325 | 36 | 0 | 0.0 | 1.0 | 0.00 | 0.00 | 0.00 | 76 | 1018.7 |
| 20260502031755 | 36 | 0 | 0.0 | 2.0 | 0.00 | 0.00 | 0.00 | 76 | 1018.7 |
| 20260502031255 | 36 | 0 | 0.0 | 1.0 | 0.00 | 0.00 | 0.00 | 76 | 1018.7 |
| 20260502030725 | 36 | 0 | 0.0 | 1.0 | 0.00 | 0.00 | 0.00 | 75 | 1018.7 |
| 20260502030155 | 36 | 0 | 0.0 | 1.0 | 0.00 | 0.00 | 0.00 | 75 | 1018.8 |
| 20260502025655 | 36 | 0 | 0.0 | 3.0 | 0.00 | 0.00 | 0.00 | 75 | 1018.7 |
| 20260502024625 | 37 | 0 | 0.0 | 1.0 | 0.00 | 0.00 | 0.00 | 75 | 1018.7 |
| 20260502024125 | 37 | 0 | 0.0 | 2.0 | 0.00 | 0.00 | 0.00 | 75 | 1018.7 |
| 20260502023555 | 37 | 0 | 0.0 | 1.0 | 0.00 | 0.00 | 0.00 | 74 | 1018.8 |
| 20260502023054 | 37 | 0 | 0.0 | 2.0 | 0.00 | 0.00 | 0.00 | 73 | 1018.9 |
| 20260502022524 | 38 | 0 | 0.0 | 2.0 | 0.00 | 0.00 | 0.00 | 73 | 1018.9 |
| 20260502021954 | 38 | 225 | 1.0 | 4.0 | 0.00 | 0.00 | 0.00 | 72 | 1018.9 |
| 20260502021454 | 38 | 225 | 1.0 | 6.0 | 0.00 | 0.00 | 0.00 | 72 | 1018.9 |
| 20260502020924 | 38 | 270 | 1.0 | 5.0 | 0.00 | 0.00 | 0.00 | 72 | 1018.9 |
| 20260502020424 | 38 | 248 | 1.0 | 3.0 | 0.00 | 0.00 | 0.00 | 72 | 1018.8 |
| 20260502015854 | 38 | 225 | 1.0 | 3.0 | 0.00 | 0.00 | 0.00 | 72 | 1018.8 |
| 20260502015354 | 38 | 225 | 1.0 | 3.0 | 0.00 | 0.00 | 0.00 | 71 | 1018.7 |
| 20260502014823 | 38 | 0 | 0.0 | 1.0 | 0.00 | 0.00 | 0.00 | 71 | 1018.6 |
| 20260502014323 | 38 | 0 | 0.0 | 2.0 | 0.00 | 0.00 | 0.00 | 71 | 1018.7 |
| 20260502013753 | 38 | 225 | 1.0 | 3.0 | 0.00 | 0.00 | 0.00 | 71 | 1018.6 |
| 20260502013253 | 38 | 292 | 1.0 | 4.0 | 0.00 | 0.00 | 0.00 | 71 | 1018.6 |
| 20260502012723 | 39 | 292 | 1.0 | 3.0 | 0.00 | 0.00 | 0.00 | 71 | 1018.5 |
| 20260502012153 | 39 | 248 | 1.0 | 3.0 | 0.00 | 0.00 | 0.00 | 71 | 1018.5 |
| 20260502011653 | 39 | 225 | 2.0 | 7.0 | 0.00 | 0.00 | 0.00 | 70 | 1018.5 |
| 20260502011123 | 39 | 248 | 2.0 | 5.0 | 0.00 | 0.00 | 0.00 | 70 | 1018.4 |
| 20260502010553 | 39 | 248 | 1.0 | 5.0 | 0.00 | 0.00 | 0.00 | 69 | 1018.4 |
| 20260502010053 | 39 | 225 | 2.0 | 4.0 | 0.00 | 0.00 | 0.00 | 69 | 1018.3 |
| 20260502005523 | 39 | 248 | 2.0 | 6.0 | 0.00 | 0.00 | 0.00 | 68 | 1018.4 |
| 20260502004952 | 39 | 225 | 2.0 | 5.0 | 0.00 | 0.00 | 0.00 | 68 | 1018.3 |
| 20260502004452 | 39 | 225 | 1.0 | 4.0 | 0.00 | 0.00 | 0.00 | 68 | 1018.3 |
| 20260502003922 | 39 | 292 | 1.0 | 4.0 | 0.00 | 0.00 | 0.00 | 68 | 1018.3 |
| 20260502003422 | 39 | 248 | 2.0 | 5.0 | 0.00 | 0.00 | 0.00 | 67 | 1018.2 |
| 20260502002922 | 39 | 248 | 2.0 | 6.0 | 0.00 | 0.00 | 0.00 | 66 | 1018.3 |
| 20260502002352 | 40 | 225 | 2.0 | 4.0 | 0.00 | 0.00 | 0.00 | 65 | 1018.2 |
| 20260502001852 | 40 | 225 | 2.0 | 5.0 | 0.00 | 0.00 | 0.00 | 65 | 1018.1 |
| 20260502001322 | 40 | 248 | 2.0 | 5.0 | 0.00 | 0.00 | 0.00 | 64 | 1018.1 |
| 20260502000752 | 40 | 248 | 1.0 | 8.0 | 0.00 | 0.00 | 0.00 | 65 | 1018.0 |
| 20260502000251 | 40 | 248 | 1.0 | 4.0 | 0.00 | 0.00 | 0.00 | 66 | 1018.0 |
| 20260501235721 | 40 | 248 | 2.0 | 5.0 | 0.00 | 0.00 | 0.00 | 66 | 1017.9 |
| 20260501235151 | 40 | 225 | 1.0 | 6.0 | 0.00 | 0.00 | 0.00 | 67 | 1017.9 |
| 20260501234621 | 40 | 270 | 1.0 | 3.0 | 0.00 | 0.00 | 0.00 | 68 | 1017.9 |
| 20260501234121 | 40 | 0 | 0.0 | 2.0 | 0.00 | 0.00 | 0.00 | 68 | 1017.9 |
| 20260501233551 | 40 | 315 | 1.0 | 3.0 | 0.00 | 0.00 | 0.00 | 69 | 1017.9 |
| 20260501233051 | 40 | 0 | 0.0 | 3.0 | 0.00 | 0.00 | 0.00 | 69 | 1017.9 |
| 20260501232551 | 40 | 292 | 2.0 | 6.0 | 0.00 | 0.00 | 0.00 | 69 | 1017.8 |
| 20260501232051 | 40 | 248 | 1.0 | 3.0 | 0.00 | 0.00 | 0.00 | 67 | 1017.9 |
| 20260501231521 | 40 | 270 | 1.0 | 4.0 | 0.00 | 0.00 | 0.00 | 67 | 1017.9 |
| 20260501231021 | 41 | 248 | 2.0 | 5.0 | 0.00 | 0.00 | 0.00 | 64 | 1017.9 |
| 20260501230451 | 41 | 292 | 1.0 | 4.0 | 0.00 | 0.00 | 0.00 | 64 | 1017.9 |
| 20260501225950 | 41 | 292 | 1.0 | 4.0 | 0.00 | 0.00 | 0.00 | 63 | 1017.9 |
| 20260501225450 | 41 | 292 | 2.0 | 6.0 | 0.00 | 0.00 | 0.00 | 62 | 1017.8 |
| 20260501224920 | 41 | 225 | 2.0 | 7.0 | 0.00 | 0.00 | 0.00 | 61 | 1017.7 |
| 20260501224420 | 41 | 270 | 3.0 | 9.0 | 0.00 | 0.00 | 0.00 | 59 | 1017.8 |
| 20260501223850 | 42 | 292 | 2.0 | 7.0 | 0.00 | 0.00 | 0.00 | 60 | 1017.8 |
| 20260501223350 | 42 | 270 | 2.0 | 6.0 | 0.00 | 0.00 | 0.00 | 58 | 1017.7 |
| 20260501222820 | 42 | 292 | 2.0 | 7.0 | 0.00 | 0.00 | 0.00 | 59 | 1017.7 |
| 20260501222320 | 42 | 248 | 3.0 | 8.0 | 0.00 | 0.00 | 0.00 | 57 | 1017.6 |
| 20260501221820 | 42 | 292 | 3.0 | 7.0 | 0.00 | 0.00 | 0.00 | 55 | 1017.6 |